RH
85 84 77 83 82 78 83 88 89 90 92 98 94 82 77 78 83 76 96 90 96 93 92 93 96 96 92 90 94 90 88 76 53 56 68 86 94 90 93 95 77 84 93
86 84 74 85 81 84 85 82 86 88 88 94 96 96 84 80 83 90 95 95 91 92 90 92 96 94 82 78 92 84 78 66 60 46 45 55 70 93 92 76 84 85 91
88 80 84 78 85 82 84 83 85 86 88 90 97 90 80 74 94 96 96 97 96 95 93 93 93 90 85 77 89 90 87 72 74 67 62 72 90 69 74 78 85 90 82
76 76 87 81 80 80 78 84 84 86 89 84 91 79 69 75 92 96 94 95 94 94 86 87 87 83 72 76 80 75 75 71 72 73 67 80 89 94 72 81 96 92 91
83 74 89 82 84 78 79 82 85 88 85 83 81 70 62 92 92 88 91 90 76 65 58 73 62 58 67 72 72 75 73 71 72 73 72 65 86 98 94 91 96 98 96
80 84 86 82 81 79 84 86 86 82 78 80 71 58 73 95 91 91 96 84 75 56 44 46 51 48 51 68 73 75 71 69 71 73 68 53 88 95 95 93 96 96 92
79 81 81 79 78 77 86 83 84 76 73 72 65 78 94 100 88 95 87 78 69 46 49 50 53 53 53 67 71 73 73 72 72 69 59 46 58 95 95 95 94 87 79
74 73 77 84 73 79 86 87 83 76 72 70 58 90 91 90 93 100 84 79 66 66 67 61 57 54 55 61 69 72 71 71 68 64 51 47 52 84 98 98 87 84 92
82 83 79 77 84 84 84 82 78 77 72 69 57 71 93 90 97 99 84 76 76 87 75 62 55 52 58 60 67 71 67 68 62 52 50 50 54 76 96 97 92 86 96
85 83 82 79 76 80 81 77 75 75 73 71 63 60 69 76 89 94 78 76 78 70 58 52 48 49 53 58 63 66 56 56 50 46 48 62 75 89 98 98 96 88 96
82 81 80 78 75 78 79 77 79 79 76 74 70 58 63 65 81 71 71 68 88 84 71 53 41 40 42 44 47 60 48 43 42 46 56 78 82 97 92 81 77 81 90
84 81 80 79 77 78 77 79 81 79 81 76 74 65 54 52 59 64 60 66 88 90 88 73 50 41 40 38 35 36 39 38 40 50 60 77 90 97 94 78 80 85 93
80 83 83 80 78 75 76 79 83 85 85 81 76 74 64 51 55 60 66 69 73 83 84 82 72 52 44 43 40 26 33 35 38 48 63 73 80 96 79 81 81 87 97
82 79 77 79 76 77 75 78 81 85 85 84 79 77 75 65 49 52 62 71 71 70 69 78 76 70 57 49 42 38 33 34 36 44 61 69 77 94 90 90 96 97 95
82 78 75 78 74 74 78 75 76 76 82 81 80 78 76 75 62 54 59 61 64 69 65 68 71 72 68 60 52 41 35 34 34 37 50 68 72 79 92 94 94 93 92
82 78 75 79 73 70 68 71 68 68 70 76 75 78 77 76 75 60 66 69 71 71 70 69 64 62 67 62 51 44 40 38 34 35 42 61 73 78 80 93 92 90 88
81 82 80 75 77 72 70 71 72 66 69 67 67 71 76 75 77 76 67 69 69 69 72 75 73 70 75 75 66 59 48 42 34 33 36 49 65 76 82 87 91 89 86
68 72 74 80 82 82 71 69 74 72 71 70 70 70 70 72 74 76 78 74 71 71 72 76 76 76 77 78 76 67 59 57 40 34 34 39 54 71 78 80 80 88 85
63 65 68 73 76 78 81 78 75 74 73 72 71 72 70 70 70 70 73 73 74 74 73 76 78 80 80 78 77 73 59 52 55 42 36 34 39 56 68 72 72 78 83
69 68 71 73 76 78 79 84 85 84 82 82 81 78 74 70 68 68 71 71 75 79 79 80 82 82 84 82 81 80 69 59 52 48 42 37 36 42 58 67 67 69 76
39 55 72 76 78 82 85 87 85 82 81 82 81 80 80 76 76 76 73 70 71 76 74 77 84 93 95 94 92 83 78 66 50 43 38 40 39 38 47 62 66 66 71
32 32 32 41 46 53 66 87 92 89 86 84 80 80 81 83 81 79 77 73 73 78 80 78 82 92 95 98 93 74 77 66 58 55 50 45 41 39 42 53 65 65 64
39 37 35 34 32 31 30 32 37 45 49 62 80 81 80 85 85 85 87 88 86 86 84 80 82 89 98 96 97 87 79 82 69 56 53 48 44 40 43 53 62 67 61
51 49 47 44 41 39 38 36 35 33 34 32 32 33 34 36 41 52 65 72 75 79 82 77 78 90 95 100 99 96 88 78 72 79 54 47 45 45 49 51 53 62 67
52 49 49 49 49 51 47 44 44 46 47 46 46 44 39 34 34 36 43 42 57 82 81 82 85 88 90 99 100 98 91 89 85 76 84 75 63 56 53 45 45 53 61
56 54 54 53 55 55 55 56 55 55 54 52 51 52 54 55 53 46 43 57 64 72 81 81 83 84 85 87 100 95 97 89 88 88 92 84 83 73 72 77 83 84 73
Wind_Speed
21 24 20 20 18 16 16 15 15 15 14 13 11 10 8 9 9 11 11 15 15 14 12 11 11 12 13 14 15 13 12 12 13 12 11 13 11 10 10 9 9 9 8
32 26 24 22 19 17 16 16 17 16 15 14 13 10 9 9 9 11 12 13 13 12 11 10 10 10 11 12 13 13 13 13 13 13 11 10 9 9 9 9 9 7 8
34 26 25 23 21 18 17 17 16 16 15 15 11 9 9 8 9 12 12 13 12 11 10 9 9 9 10 11 12 12 11 11 12 12 12 12 11 8 7 8 7 7 6
31 28 25 23 22 20 18 18 17 16 16 12 9 7 10 10 12 12 13 12 10 10 9 9 9 10 10 12 12 10 8 7 7 9 10 9 8 4 6 6 6 6 4
30 29 25 23 22 19 20 19 18 17 13 10 6 9 12 14 15 13 14 11 9 8 9 10 11 11 12 13 11 9 7 6 6 6 7 7 8 7 4 5 8 14 15
29 28 24 22 20 19 19 19 18 15 11 7 6 10 14 16 16 15 13 10 7 7 9 10 10 11 12 11 9 7 6 7 8 6 5 6 7 7 9 10 11 11 10
27 26 23 21 20 20 20 18 18 14 9 5 6 12 13 13 13 12 10 8 6 7 8 8 8 9 10 9 7 5 4 5 5 4 3 4 4 5 7 7 5 5 2
27 25 21 19 20 19 19 19 17 13 9 6 7 13 12 12 11 10 9 7 6 7 6 6 6 6 7 8 6 4 3 5 3 1 1 2 2 4 5 4 2 3 4
26 26 24 19 19 19 18 17 14 11 9 6 8 12 12 12 11 9 9 8 7 6 5 4 4 4 6 6 6 4 3 5 2 2 1 2 3 4 6 6 5 3 4
26 25 25 21 20 20 18 15 13 12 9 6 7 12 13 13 12 10 10 9 8 7 5 4 3 3 4 5 6 4 3 4 4 3 3 2 4 6 8 6 5 2 3
24 24 23 21 20 21 20 17 15 14 11 8 7 9 10 12 13 11 10 10 8 6 4 4 4 4 4 5 6 7 5 5 4 4 2 2 5 8 7 5 1 2 1
24 23 22 20 21 22 21 20 18 16 15 12 9 10 10 10 11 10 11 11 11 9 7 5 4 5 5 6 7 8 7 6 6 5 3 3 6 8 8 4 4 4 3
24 23 22 20 21 21 22 21 20 18 16 14 12 10 10 10 11 11 11 12 12 11 10 9 8 8 7 8 8 8 9 8 8 7 6 6 7 8 7 7 9 9 4
23 22 20 20 20 20 21 22 20 19 18 17 15 13 11 12 13 13 14 13 13 13 13 12 11 11 11 11 11 11 11 10 9 9 9 10 11 10 9 10 9 7 6
23 21 21 20 20 21 22 21 21 20 20 18 17 16 14 13 14 15 15 15 15 14 15 15 15 15 15 15 15 14 14 14 13 13 14 14 13 14 11 9 9 8 8
20 20 22 23 21 20 22 20 22 21 20 20 19 18 18 16 15 18 18 18 18 17 16 16 17 18 17 15 15 16 16 17 16 14 15 16 17 16 15 12 11 11 10
25 21 21 22 24 24 23 21 20 21 20 21 20 18 20 20 20 20 21 22 22 22 21 21 20 20 20 19 20 18 18 18 19 19 18 18 19 19 19 15 14 13 13
22 25 24 23 22 20 23 25 24 22 20 20 20 20 21 22 22 24 25 27 25 26 27 26 25 25 25 25 25 23 22 19 20 21 21 20 21 22 22 21 18 17 16
20 21 20 20 23 23 21 20 22 23 23 23 23 24 27 27 25 27 28 29 28 27 29 30 30 28 29 30 28 28 26 25 23 23 24 23 24 25 26 24 22 21 20
20 21 21 18 18 17 19 23 23 22 23 22 22 24 22 23 27 28 29 29 31 30 30 31 33 33 32 33 32 31 30 29 27 28 28 26 27 28 28 28 25 24 25
9 12 18 20 20 19 17 18 21 26 28 28 28 27 24 24 25 25 26 28 30 32 32 32 32 33 34 33 27 25 29 28 28 30 30 30 32 32 32 31 29 27 26
11 10 10 8 7 8 12 18 17 17 19 23 25 25 27 27 27 26 26 28 27 28 29 31 32 29 30 27 11 5 3 9 24 33 34 35 36 34 34 34 32 30 28
10 8 7 5 4 5 6 6 8 10 11 13 14 17 19 21 23 24 24 25 24 23 25 27 28 29 23 18 20 11 2 4 3 9 18 24 33 35 33 32 33 32 31
12 10 9 9 7 5 4 5 6 8 9 11 13 15 17 16 17 18 20 21 22 22 22 22 22 24 24 19 18 24 27 13 3 4 5 9 12 21 29 32 30 30 34
11 10 9 9 8 8 5 4 2 2 4 7 9 10 12 15 17 19 17 21 22 23 22 22 18 17 18 20 18 15 15 19 13 3 8 4 10 10 13 22 28 29 30
11 10 8 6 6 5 3 4 3 2 4 6 6 7 7 8 10 12 15 15 18 21 22 19 16 13 13 12 16 16 18 9 7 10 6 9 10 18 23 25 28 30 31
Wind_Direction
172 164 168 157 157 154 152 149 144 144 138 128 120 112 107 108 103 109 104 98 98 96 96 94 93 92 91 91 94 99 97 89 83 82 84 87 96 71 83 81 81 80 72
161 165 166 160 159 154 151 152 151 146 134 131 125 118 120 115 113 123 117 110 105 102 99 99 100 98 100 101 100 103 95 87 82 80 80 82 82 76 81 76 69 70 76
162 164 162 161 156 157 156 151 150 144 140 138 130 120 121 121 126 132 129 117 108 103 100 101 100 99 106 110 109 106 99 89 85 82 76 77 63 60 76 74 71 65 77
161 162 163 160 159 158 156 153 151 147 145 138 128 121 128 127 132 136 137 124 118 107 106 108 104 101 111 115 113 108 101 95 103 81 73 76 67 56 73 70 59 47 109
159 161 161 160 161 161 158 155 153 152 144 135 129 135 133 118 138 138 142 148 125 111 112 111 110 113 121 124 121 117 108 104 116 98 74 68 71 93 76 97 86 78 86
159 159 164 165 165 164 161 156 157 152 144 140 142 136 141 133 136 148 146 148 134 121 122 119 119 125 134 134 130 120 107 112 118 108 71 79 93 91 92 100 90 79 77
156 159 165 167 166 165 164 161 160 154 148 158 146 140 145 142 159 156 153 148 143 134 129 125 127 133 142 147 142 124 120 148 126 102 81 98 118 110 117 112 100 74 46
150 150 155 165 167 163 166 165 166 167 174 163 151 149 153 158 166 153 154 150 147 138 135 132 137 143 153 164 160 142 140 161 161 115 82 97 134 150 146 120 120 78 83
155 155 162 172 169 167 169 174 180 179 174 171 161 157 166 172 165 165 169 161 153 148 146 146 147 155 164 178 179 172 175 198 226 241 278 275 177 177 165 140 117 121 98
161 166 169 176 178 175 171 185 190 192 182 181 178 178 180 179 175 176 172 169 165 166 158 159 168 176 177 185 191 190 198 228 248 246 301 217 175 182 162 151 127 122 98
171 175 179 185 187 180 177 178 192 197 195 190 194 186 186 181 180 182 182 175 173 195 187 180 182 189 194 203 207 213 234 253 262 275 309 197 165 183 179 181 183 251 214
176 182 186 190 187 187 186 185 192 203 196 196 200 197 194 191 188 186 186 187 188 206 220 218 215 218 218 223 225 233 247 261 263 257 253 217 194 186 190 225 252 235 228
184 187 194 198 195 194 194 194 197 202 201 202 204 208 205 203 200 201 201 202 207 217 224 228 232 240 243 242 245 247 253 266 261 252 243 218 205 198 219 240 243 235 222
189 191 195 201 202 201 201 203 206 206 210 211 211 213 215 216 215 216 215 219 226 233 238 238 243 249 251 252 254 256 258 264 260 253 246 234 223 222 229 243 237 222 222
193 195 199 201 207 209 210 212 213 216 219 219 220 221 225 229 229 226 228 229 233 240 246 248 251 254 257 255 255 258 257 267 265 257 250 242 238 242 238 235 229 228 224
195 201 208 208 209 211 210 213 217 221 226 226 229 232 233 236 240 237 239 239 241 245 251 255 258 261 260 258 255 258 262 267 268 264 257 248 242 243 251 235 234 234 233
204 202 203 208 216 218 218 220 222 223 227 229 232 237 240 242 242 244 245 248 251 252 254 255 257 258 258 256 256 257 261 266 264 268 266 256 247 244 248 245 235 236 232
215 214 217 208 212 215 219 224 225 226 231 233 236 241 242 245 248 249 250 252 257 255 253 255 256 256 258 259 260 259 258 266 265 267 269 263 257 247 248 251 244 235 230
220 220 220 218 222 220 220 223 227 232 235 241 244 249 248 246 248 252 254 259 262 259 254 255 256 255 259 261 261 260 256 256 263 265 264 264 260 252 247 248 250 240 231
232 234 232 230 227 226 232 233 232 234 237 241 244 249 257 254 250 251 255 259 262 262 262 260 257 259 258 263 265 265 260 257 259 255 259 261 262 257 251 245 247 242 234
180 206 223 232 231 232 235 240 240 242 245 248 250 250 251 256 260 257 259 261 261 261 265 267 265 262 261 258 262 271 265 261 258 256 256 256 258 255 252 248 244 245 239
143 143 146 157 177 212 232 240 247 253 256 257 258 258 258 262 262 263 263 266 268 267 266 266 264 257 261 263 238 248 302 280 258 258 257 257 258 255 252 249 245 241 242
137 133 129 130 164 200 219 231 239 245 253 259 262 265 265 266 266 267 267 268 269 268 268 269 271 265 254 260 254 227 279 238 323 254 263 264 259 257 257 258 251 246 242
131 128 124 121 119 126 194 225 246 256 265 266 269 267 265 269 270 270 268 267 267 268 269 271 274 270 268 253 255 249 247 255 257 310 270 283 284 267 258 261 260 255 250
134 127 122 115 107 100 101 99 116 259 273 282 283 281 279 277 276 271 276 269 268 262 264 268 268 261 267 267 258 261 258 250 258 244 288 285 292 288 279 258 261 262 261
131 124 120 106 86 75 61 55 45 9 333 315 312 311 310 309 309 289 270 279 272 262 261 266 259 257 267 278 272 271 261 239 224 217 241 269 255 272 279 277 269 259 253